カタログに戻る

YAOGAN-30 E

運用中軍事VLEO
NORAD 43029·PAYLOAD·🇨🇳 China

打ち上げ Nov 24, 2017 から Xichang Satellite Launch Center

Loading…

次のパス (今後24時間)

TLE

最新Source: Space-Track

元期: Sep 14, 2026, 14:55 UTC

1 43029U 17075B   26257.62205017  .00001779  00000-0  13164-3 0  9995
2 43029  34.9935  84.9678 0004427 300.4681  59.5590 15.03006238480827

AllMySatでYAOGAN-30 Eをリアルタイム追跡

Download on the App Store